CW4740 Weather Reports


Display with metric or nautical units.
time (UTC)temp
F
wind
direction
speed
MPH
gust
MPH
rain 1hr
in
rain 24hr
in
rain mn
in
humidity
%
barometer
mb
20260510150643 87 137 5.0 12.0 0.00 0.00 0.00 78 1017.1
20260510150202 87 162 6.0 10.0 0.00 0.00 0.00 77 1017.2
20260510145631 87 175 4.0 9.0 0.00 0.00 0.00 78 1017.1
20260510145249 87 128 6.0 10.0 0.00 0.00 0.00 79 1017.2
20260510145206 87 128 6.0 10.0 0.00 0.00 0.00 79 1017.2
20260510144642 86 134 4.0 10.0 0.00 0.00 0.00 79 1017.1
20260510144139 86 115 5.0 10.0 0.00 0.00 0.00 80 1016.9
20260510143657 86 138 6.0 10.0 0.00 0.00 0.00 80 1016.9
20260510143153 85 135 3.0 9.0 0.00 0.00 0.00 81 1016.9
20260510142629 85 153 4.0 9.0 0.00 0.00 0.00 80 1017.0
20260510142147 85 107 4.0 9.0 0.00 0.00 0.00 80 1017.0
20260510141645 85 150 3.0 11.0 0.00 0.00 0.00 79 1017.0
20260510141143 86 107 7.0 11.0 0.00 0.00 0.00 79 1017.0
20260510140641 86 132 4.0 10.0 0.00 0.00 0.00 78 1017.0
20260510140140 86 145 2.0 11.0 0.00 0.00 0.00 78 1017.1
20260510135629 86 93 4.0 11.0 0.00 0.00 0.00 78 1017.1
20260510135128 86 144 2.0 10.0 0.00 0.00 0.00 78 1017.1
20260510134646 86 144 3.0 10.0 0.00 0.00 0.00 79 1017.2
20260510134145 86 151 5.0 12.0 0.00 0.00 0.00 78 1017.1
20260510133641 86 127 5.0 12.0 0.00 0.00 0.00 78 1017.2
20260510133236 86 98 5.0 11.0 0.00 0.00 0.00 79 1017.1
20260510133154 86 98 5.0 11.0 0.00 0.00 0.00 79 1017.1
20260510132629 86 146 5.0 9.0 0.00 0.00 0.00 79 1017.1
20260510132147 86 117 4.0 9.0 0.00 0.00 0.00 80 1017.1
20260510131704 85 149 2.0 6.0 0.00 0.00 0.00 80 1017.1
20260510131140 85 149 3.0 8.0 0.00 0.00 0.00 81 1017.0
20260510130657 85 157 4.0 8.0 0.00 0.00 0.00 80 1017.0
20260510130134 85 205 1.0 7.0 0.00 0.00 0.00 81 1017.0
20260510125741 85 127 2.0 7.0 0.00 0.00 0.00 82 1016.9
20260510125659 85 127 2.0 7.0 0.00 0.00 0.00 82 1016.9
20260510125156 84 153 1.0 6.0 0.00 0.00 0.00 83 1016.9
20260510124630 84 188 1.0 6.0 0.00 0.00 0.00 83 1017.0
20260510124148 84 145 1.0 7.0 0.00 0.00 0.00 84 1016.8
20260510123645 84 145 3.0 7.0 0.00 0.00 0.00 84 1016.8
20260510123143 83 195 2.0 7.0 0.00 0.00 0.00 85 1016.6
20260510122641 83 189 4.0 7.0 0.00 0.00 0.00 86 1016.7
20260510122158 83 138 2.0 5.0 0.00 0.00 0.00 86 1016.5
20260510121653 83 112 2.0 5.0 0.00 0.00 0.00 86 1016.3
20260510121229 83 179 1.0 5.0 0.00 0.00 0.00 86 1016.3
20260510120645 82 155 0.0 5.0 0.00 0.00 0.00 87 1016.2
20260510120203 82 155 2.0 5.0 0.00 0.00 0.00 87 1016.2
20260510115632 82 261 0.0 2.0 0.00 0.00 0.00 88 1016.1
20260510115130 81 261 1.0 1.0 0.00 0.00 0.00 88 1016.2
20260510114708 81 262 0.0 0.0 0.00 0.00 0.00 88 1016.2
20260510114146 80 262 0.0 0.0 0.00 0.00 0.00 89 1016.1
20260510113724 79 262 0.0 0.0 0.00 0.00 0.00 89 1016.0
20260510113200 79 262 0.0 0.0 0.00 0.00 0.00 90 1015.8
20260510112637 78 262 0.0 0.0 0.00 0.00 0.00 90 1015.7
20260510112153 78 262 0.0 0.0 0.00 0.00 0.00 90 1015.6
20260510111729 78 262 0.0 0.0 0.00 0.00 0.00 90 1015.6
20260510111145 78 262 0.0 0.0 0.00 0.00 0.00 89 1015.4
20260510110642 78 262 0.0 0.0 0.00 0.00 0.00 89 1015.4
20260510110141 78 262 0.0 0.0 0.00 0.00 0.00 89 1015.4
20260510105629 78 262 0.0 1.0 0.00 0.00 0.00 89 1015.3
20260510105127 78 262 0.0 1.0 0.00 0.00 0.00 89 1015.2
20260510104704 78 205 0.0 0.0 0.00 0.00 0.00 89 1015.2
20260510104201 78 205 0.0 0.0 0.00 0.00 0.00 89 1015.2
20260510103657 78 205 0.0 0.0 0.00 0.00 0.00 88 1015.1
20260510103134 78 205 0.0 0.0 0.00 0.00 0.00 89 1015.2
20260510102632 78 205 0.0 1.0 0.00 0.00 0.00 89 1015.1
20260510102129 78 205 0.0 2.0 0.00 0.00 0.00 89 1015.0
20260510101706 78 205 0.0 2.0 0.00 0.00 0.00 89 1014.9
20260510101143 78 205 1.0 2.0 0.00 0.00 0.00 90 1014.8
20260510100640 78 205 0.0 1.0 0.00 0.00 0.00 90 1014.9
20260510100158 78 205 0.0 2.0 0.00 0.00 0.00 90 1014.8
20260510095645 78 205 0.0 2.0 0.00 0.00 0.00 90 1014.8
20260510095201 78 205 0.0 1.0 0.00 0.00 0.00 90 1014.7
20260510094635 78 205 0.0 2.0 0.00 0.00 0.00 90 1014.7
20260510094132 78 205 0.0 2.0 0.00 0.00 0.00 90 1014.7
20260510093629 78 205 0.0 1.0 0.00 0.00 0.00 90 1014.7
20260510093207 78 205 0.0 1.0 0.00 0.00 0.00 90 1014.7
20260510092704 78 205 0.0 1.0 0.00 0.00 0.00 90 1014.7
20260510092221 78 205 0.0 1.0 0.00 0.00 0.00 90 1014.7
20260510091637 78 205 0.0 0.0 0.00 0.00 0.00 89 1014.6
20260510091135 78 205 0.0 1.0 0.00 0.00 0.00 89 1014.5
20260510090712 78 205 0.0 1.0 0.00 0.00 0.00 89 1014.5
20260510090207 79 205 0.0 1.0 0.00 0.00 0.00 89 1014.4
20260510085634 78 205 0.0 0.0 0.00 0.00 0.00 89 1014.3
20260510085152 79 205 0.0 0.0 0.00 0.00 0.00 89 1014.4
20260510084629 79 205 0.0 0.0 0.00 0.00 0.00 88 1014.5
20260510084226 79 205 0.0 1.0 0.00 0.00 0.00 88 1014.5
20260510083703 79 205 0.0 1.0 0.00 0.00 0.00 88 1014.4
20260510083200 79 205 0.0 1.0 0.00 0.00 0.00 88 1014.5
20260510082657 79 205 0.0 0.0 0.00 0.00 0.00 88 1014.5
20260510082233 79 205 0.0 1.0 0.00 0.00 0.00 88 1014.4
20260510081646 79 205 0.0 1.0 0.00 0.00 0.00 88 1014.5
20260510081144 79 205 0.0 1.0 0.00 0.00 0.00 88 1014.5
20260510080722 79 205 0.0 0.0 0.00 0.00 0.00 87 1014.4
20260510080239 79 205 0.0 0.0 0.00 0.00 0.00 87 1014.4
20260510080157 79 205 0.0 0.0 0.00 0.00 0.00 87 1014.4
20260510075645 80 205 0.0 0.0 0.00 0.00 0.00 87 1014.5
20260510075142 80 205 0.0 1.0 0.00 0.00 0.00 87 1014.5
20260510074700 80 205 0.0 1.0 0.00 0.00 0.00 87 1014.7
20260510074157 80 205 0.0 0.0 0.00 0.00 0.00 86 1014.6
20260510073634 80 205 0.0 2.0 0.00 0.00 0.00 86 1014.6
20260510073131 80 205 0.0 2.0 0.00 0.00 0.00 86 1014.6
20260510072629 80 205 0.0 1.0 0.00 0.00 0.00 85 1014.7
20260510072207 80 205 0.0 1.0 0.00 0.00 0.00 84 1014.6
20260510071643 80 205 0.0 0.0 0.00 0.00 0.00 84 1014.7
20260510071221 80 205 0.0 0.0 0.00 0.00 0.00 84 1014.7
20260510070737 80 205 0.0 0.0 0.00 0.00 0.00 84 1014.6
20260510070133 80 205 0.0 2.0 0.00 0.00 0.00 84 1014.6
20260510065643 81 205 0.0 2.0 0.00 0.00 0.00 83 1014.5
20260510065200 81 205 0.0 3.0 0.00 0.00 0.00 83 1014.7
20260510064636 81 205 1.0 3.0 0.00 0.00 0.00 83 1014.7
20260510064153 81 205 0.0 2.0 0.00 0.00 0.00 82 1014.7
20260510063650 81 205 0.0 0.0 0.00 0.00 0.00 82 1014.8
20260510063226 81 205 0.0 0.0 0.00 0.00 0.00 81 1014.8
20260510062702 81 205 0.0 0.0 0.00 0.00 0.00 81 1014.8
20260510062158 81 205 0.0 0.0 0.00 0.00 0.00 81 1014.8
20260510061656 81 205 0.0 1.0 0.00 0.00 0.00 80 1014.9
20260510061131 81 205 0.0 2.0 0.00 0.00 0.00 80 1015.0
20260510060708 81 205 0.0 2.0 0.00 0.00 0.00 79 1014.9
20260510060225 82 205 0.0 3.0 0.00 0.00 0.00 79 1014.9
20260510055650 82 205 1.0 2.0 0.00 0.00 0.00 80 1014.9
20260510055243 82 205 0.0 2.0 0.00 0.00 0.00 79 1014.9
20260510055140 82 205 0.0 2.0 0.00 0.00 0.00 79 1014.9
20260510054641 82 205 0.0 2.0 0.00 0.00 0.00 79 1015.1
20260510054200 82 205 0.0 1.0 0.00 0.00 0.00 79 1015.0
20260510053712 82 205 0.0 2.0 0.00 0.00 0.00 79 1015.1
20260510053128 82 205 0.0 2.0 0.00 0.00 0.00 78 1015.1
20260510052630 82 205 0.0 2.0 0.00 0.00 0.00 78 1015.1
20260510052128 82 205 0.0 1.0 0.00 0.00 0.00 78 1015.3
20260510051720 82 205 0.0 2.0 0.00 0.00 0.00 78 1015.2
20260510051155 82 205 0.0 1.0 0.00 0.00 0.00 78 1015.2
20260510050632 82 205 0.0 1.0 0.00 0.00 0.00 78 1015.3
20260510050134 82 205 0.0 2.0 0.00 0.00 0.00 78 1015.4
20260510045721 82 205 1.0 2.0 0.00 0.00 0.00 78 1015.4
20260510045237 82 205 0.0 1.0 0.00 0.00 0.00 79 1015.5
20260510044631 82 205 0.0 2.0 0.00 0.00 0.00 79 1015.5
20260510044149 82 205 0.0 2.0 0.00 0.00 0.00 79 1015.5
20260510043706 82 205 0.0 2.0 0.00 0.00 0.00 79 1015.5
20260510043142 82 205 0.0 2.0 0.00 0.00 0.00 79 1015.6
20260510042700 82 205 0.0 1.0 0.00 0.00 0.00 78 1015.5
20260510042218 83 205 0.0 1.0 0.00 0.00 0.00 78 1015.5
20260510041633 83 205 0.0 1.0 0.00 0.00 0.00 79 1015.5
20260510041129 83 205 0.0 2.0 0.00 0.00 0.00 78 1015.5
20260510040726 83 205 0.0 3.0 0.00 0.00 0.00 78 1015.5
20260510040644 83 205 0.0 3.0 0.00 0.00 0.00 78 1015.5
20260510040240 83 205 1.0 3.0 0.00 0.00 0.00 78 1015.6
20260510040136 83 205 1.0 3.0 0.00 0.00 0.00 78 1015.6
20260510035643 83 205 1.0 3.0 0.00 0.00 0.00 78 1015.6
20260510035141 83 205 1.0 2.0 0.00 0.00 0.00 78 1015.6
20260510034717 83 205 1.0 2.0 0.00 0.00 0.00 79 1015.5
20260510034233 83 205 0.0 1.0 0.00 0.00 0.00 79 1015.4
20260510034150 83 205 0.0 1.0 0.00 0.00 0.00 79 1015.4
20260510033706 83 205 0.0 2.0 0.00 0.00 0.00 79 1015.5
20260510033141 83 205 0.0 3.0 0.00 0.00 0.00 79 1015.4
20260510032718 82 205 1.0 3.0 0.00 0.00 0.00 80 1015.4
20260510032153 82 205 1.0 3.0 0.00 0.00 0.00 79 1015.3
20260510031630 83 206 1.0 3.0 0.00 0.00 0.00 79 1015.3
20260510031227 83 202 1.0 3.0 0.00 0.00 0.00 80 1015.2
20260510030719 83 202 0.0 6.0 0.00 0.00 0.00 79 1015.3
20260510030138 83 202 2.0 6.0 0.00 0.00 0.00 80 1015.4
20260510025742 83 206 1.0 4.0 0.00 0.00 0.00 79 1015.3
20260510025136 83 206 1.0 4.0 0.00 0.00 0.00 79 1015.2
20260510024714 83 208 2.0 3.0 0.00 0.00 0.00 79 1015.2
20260510024209 83 191 1.0 5.0 0.00 0.00 0.00 79 1015.2
20260510023706 83 186 2.0 6.0 0.00 0.00 0.00 78 1015.1
20260510023142 83 169 2.0 4.0 0.00 0.00 0.00 78 1015.0
20260510022741 83 188 2.0 4.0 0.00 0.00 0.00 78 1015.1
20260510022658 83 188 2.0 4.0 0.00 0.00 0.00 78 1015.1
20260510022135 83 196 1.0 8.0 0.00 0.00 0.00 78 1014.9
20260510021633 83 148 2.0 8.0 0.00 0.00 0.00 78 1014.6
20260510021212 83 157 3.0 8.0 0.00 0.00 0.00 78 1014.5
20260510020707 83 183 3.0 7.0 0.00 0.00 0.00 78 1014.5
20260510020244 83 162 4.0 7.0 0.00 0.00 0.00 78 1014.4
20260510015728 83 186 3.0 7.0 0.00 0.00 0.00 78 1014.4
20260510015143 83 201 4.0 7.0 0.00 0.00 0.00 78 1014.4
20260510014640 83 198 3.0 7.0 0.00 0.00 0.00 77 1014.5
20260510014137 83 196 3.0 9.0 0.00 0.00 0.00 77 1014.4
20260510013715 83 162 3.0 9.0 0.00 0.00 0.00 77 1014.3
20260510013151 83 169 3.0 8.0 0.00 0.00 0.00 77 1014.3
20260510012708 83 138 4.0 9.0 0.00 0.00 0.00 77 1014.3
20260510012145 83 171 2.0 10.0 0.00 0.00 0.00 78 1014.3
20260510011643 83 161 4.0 10.0 0.00 0.00 0.00 79 1014.2
20260510011140 83 166 4.0 8.0 0.00 0.00 0.00 80 1014.1
20260510010656 83 198 3.0 8.0 0.00 0.00 0.00 80 1013.9
20260510010132 83 134 2.0 8.0 0.00 0.00 0.00 80 1014.0
20260510005639 83 138 3.0 8.0 0.00 0.00 0.00 80 1013.6
20260510005137 83 175 4.0 8.0 0.00 0.00 0.00 79 1013.6
20260510004734 83 236 3.0 8.0 0.00 0.00 0.00 80 1013.6
20260510004207 83 171 4.0 10.0 0.00 0.00 0.00 80 1013.4
20260510003643 83 158 5.0 12.0 0.00 0.00 0.00 79 1013.4
20260510003141 83 167 4.0 13.0 0.00 0.00 0.00 79 1013.3
20260510002721 83 143 7.0 13.0 0.00 0.00 0.00 80 1013.2
20260510002156 83 163 5.0 11.0 0.00 0.00 0.00 80 1013.2
20260510001711 83 167 5.0 15.0 0.00 0.00 0.00 81 1013.0
20260510001205 84 187 6.0 15.0 0.00 0.00 0.00 81 1013.0
20260510000640 84 152 5.0 12.0 0.00 0.00 0.00 81 1012.9
20260510000136 84 250 4.0 13.0 0.00 0.00 0.00 81 1012.8
20260509235645 84 175 7.0 14.0 0.00 0.00 0.00 80 1012.9
20260509235143 84 121 5.0 10.0 0.00 0.00 0.00 80 1012.8
20260509234701 84 147 7.0 12.0 0.00 0.00 0.00 80 1012.9
20260509234138 84 168 5.0 11.0 0.00 0.00 0.00 80 1012.8
20260509233656 84 171 6.0 10.0 0.00 0.00 0.00 80 1012.8
20260509233232 84 161 4.0 13.0 0.00 0.00 0.00 79 1012.7
20260509233129 84 161 4.0 13.0 0.00 0.00 0.00 79 1012.7
20260509232646 84 158 8.0 13.0 0.00 0.00 0.00 79 1012.6
20260509232204 84 148 7.0 13.0 0.00 0.00 0.00 80 1012.6
20260509231641 84 153 7.0 14.0 0.00 0.00 0.00 80 1012.6
20260509231139 84 121 6.0 13.0 0.00 0.00 0.00 80 1012.5
20260509230738 84 202 6.0 13.0 0.00 0.00 0.00 80 1012.5
20260509230635 84 202 6.0 13.0 0.00 0.00 0.00 80 1012.5
20260509230133 85 190 7.0 18.0 0.00 0.00 0.00 79 1012.4
20260509225642 85 175 7.0 14.0 0.00 0.00 0.00 78 1012.3
20260509225159 85 98 9.0 16.0 0.00 0.00 0.00 78 1012.3
20260509224715 85 145 6.0 14.0 0.00 0.00 0.00 78 1012.3
20260509224211 85 162 7.0 16.0 0.00 0.00 0.00 78 1012.3
20260509223646 85 161 8.0 16.0 0.00 0.00 0.00 77 1012.4
20260509223144 85 173 8.0 17.0 0.00 0.00 0.00 76 1012.4
20260509222640 86 113 7.0 17.0 0.00 0.00 0.00 76 1012.3
20260509222138 85 138 5.0 17.0 0.00 0.00 0.00 76 1012.3
20260509221716 85 215 8.0 17.0 0.00 0.00 0.00 76 1012.2
20260509221231 85 158 8.0 17.0 0.00 0.00 0.00 77 1012.2
20260509220645 86 151 9.0 17.0 0.00 0.00 0.00 77 1012.2
20260509220200 86 159 7.0 15.0 0.00 0.00 0.00 77 1012.3
20260509215644 86 153 8.0 16.0 0.00 0.00 0.00 77 1012.3
20260509215141 86 163 7.0 15.0 0.00 0.00 0.00 77 1012.2
20260509214638 86 131 6.0 20.0 0.00 0.00 0.00 77 1012.2
20260509214135 86 157 12.0 20.0 0.00 0.00 0.00 76 1012.1
20260509213632 86 135 9.0 16.0 0.00 0.00 0.00 75 1012.2
20260509213150 87 152 9.0 21.0 0.00 0.00 0.00 72 1012.1
20260509212628 87 163 10.0 21.0 0.00 0.00 0.00 72 1012.3
20260509212245 88 161 9.0 18.0 0.00 0.00 0.00 71 1012.2
20260509211639 88 183 8.0 15.0 0.00 0.00 0.00 70 1012.3
20260509211137 88 154 7.0 15.0 0.00 0.00 0.00 70 1012.4
20260509210714 87 115 5.0 15.0 0.00 0.00 0.00 72 1012.3
20260509210148 87 123 10.0 16.0 0.00 0.00 0.00 71 1012.3
20260509205636 87 175 8.0 20.0 0.00 0.00 0.00 71 1012.2
20260509205154 87 181 9.0 20.0 0.00 0.00 0.00 73 1012.2
20260509204631 87 188 10.0 16.0 0.00 0.00 0.00 70 1012.3
20260509204246 87 163 9.0 17.0 0.00 0.00 0.00 72 1012.3
20260509204143 87 163 9.0 17.0 0.00 0.00 0.00 72 1012.3
20260509203645 87 150 8.0 19.0 0.00 0.00 0.00 74 1012.4
20260509203142 88 113 10.0 19.0 0.00 0.00 0.00 71 1012.5
20260509202735 88 121 7.0 19.0 0.00 0.00 0.00 71 1012.6
20260509202229 88 150 10.0 19.0 0.00 0.00 0.00 72 1012.6
20260509201645 88 167 7.0 18.0 0.00 0.00 0.00 71 1012.7
20260509201143 88 127 6.0 15.0 0.00 0.00 0.00 70 1012.6
20260509200643 88 170 10.0 15.0 0.00 0.00 0.00 69 1012.8
20260509200143 89 154 8.0 17.0 0.00 0.00 0.00 68 1012.7
20260509195631 88 167 9.0 17.0 0.00 0.00 0.00 66 1012.9
20260509195149 88 119 6.0 18.0 0.00 0.00 0.00 71 1013.0
20260509194646 88 153 10.0 19.0 0.00 0.00 0.00 70 1013.1
20260509194144 88 134 9.0 17.0 0.00 0.00 0.00 70 1013.0
20260509193702 88 145 7.0 14.0 0.00 0.00 0.00 70 1013.0
20260509193136 88 94 9.0 14.0 0.00 0.00 0.00 71 1012.9
20260509192633 89 134 8.0 15.0 0.00 0.00 0.00 70 1013.0
20260509192207 89 111 6.0 15.0 0.00 0.00 0.00 70 1013.0
20260509191703 88 123 8.0 15.0 0.00 0.00 0.00 70 1013.0
20260509191219 89 166 6.0 14.0 0.00 0.00 0.00 73 1013.1
20260509190656 89 134 8.0 13.0 0.00 0.00 0.00 72 1013.1
20260509190229 89 105 8.0 12.0 0.00 0.00 0.00 72 1013.2
20260509185635 88 121 8.0 13.0 0.00 0.00 0.00 72 1013.3
20260509185135 88 198 7.0 13.0 0.00 0.00 0.00 73 1013.2
20260509184633 88 102 7.0 16.0 0.00 0.00 0.00 73 1013.3
20260509184211 88 113 7.0 15.0 0.00 0.00 0.00 73 1013.3
20260509184129 88 113 7.0 15.0 0.00 0.00 0.00 73 1013.3
20260509183647 88 166 8.0 14.0 0.00 0.00 0.00 73 1013.3
20260509183240 88 130 6.0 13.0 0.00 0.00 0.00 73 1013.4
20260509183137 88 130 6.0 13.0 0.00 0.00 0.00 73 1013.4
20260509182655 88 138 7.0 13.0 0.00 0.00 0.00 71 1013.7
20260509182229 88 152 7.0 13.0 0.00 0.00 0.00 71 1013.8
20260509182147 88 152 7.0 13.0 0.00 0.00 0.00 71 1013.8
20260509181704 88 153 8.0 13.0 0.00 0.00 0.00 71 1013.9
20260509181139 88 186 8.0 14.0 0.00 0.00 0.00 73 1014.0
20260509180637 88 147 8.0 14.0 0.00 0.00 0.00 72 1013.8
20260509180214 88 103 8.0 15.0 0.00 0.00 0.00 73 1013.9
20260509175642 89 144 9.0 15.0 0.00 0.00 0.00 71 1013.9
20260509175141 89 140 7.0 14.0 0.00 0.00 0.00 70 1013.9
20260509174658 88 137 7.0 15.0 0.00 0.00 0.00 73 1013.9
20260509174215 88 176 7.0 15.0 0.00 0.00 0.00 71 1014.2
20260509173751 88 109 8.0 14.0 0.00 0.00 0.00 72 1014.2
20260509173647 88 109 8.0 14.0 0.00 0.00 0.00 72 1014.2
20260509173225 88 139 5.0 18.0 0.00 0.00 0.00 75 1014.2
20260509172638 88 118 7.0 18.0 0.00 0.00 0.00 73 1014.2
20260509172134 88 160 6.0 12.0 0.00 0.00 0.00 74 1014.3
20260509171633 88 102 5.0 14.0 0.00 0.00 0.00 73 1014.3
20260509171210 88 92 9.0 14.0 0.00 0.00 0.00 76 1014.3
20260509170705 88 122 8.0 14.0 0.00 0.00 0.00 75 1014.4
20260509170200 87 142 6.0 17.0 0.00 0.00 0.00 76 1014.4
20260509165644 87 94 8.0 17.0 0.00 0.00 0.00 77 1014.4
20260509165201 87 134 9.0 13.0 0.00 0.00 0.00 76 1014.4
20260509164658 87 109 8.0 15.0 0.00 0.00 0.00 76 1014.6
20260509164135 87 96 9.0 17.0 0.00 0.00 0.00 76 1014.6
20260509163631 87 102 9.0 14.0 0.00 0.00 0.00 75 1014.5
20260509163249 88 129 8.0 14.0 0.00 0.00 0.00 74 1014.6
20260509162643 88 117 5.0 13.0 0.00 0.00 0.00 74 1014.7
20260509162201 89 137 5.0 11.0 0.00 0.00 0.00 72 1014.7
20260509161656 89 128 6.0 12.0 0.00 0.00 0.00 72 1014.9
20260509161132 88 175 6.0 12.0 0.00 0.00 0.00 72 1014.8
20260509160708 89 117 5.0 10.0 0.00 0.00 0.00 73 1014.7
20260509160145 89 132 5.0 10.0 0.00 0.00 0.00 72 1014.8
20260509155633 88 121 4.0 12.0 0.00 0.00 0.00 73 1014.9
20260509155133 88 145 5.0 12.0 0.00 0.00 0.00 71 1015.0
20260509154630 88 154 5.0 13.0 0.00 0.00 0.00 70 1015.0
20260509154128 88 153 7.0 13.0 0.00 0.00 0.00 71 1014.9
20260509153704 87 146 8.0 13.0 0.00 0.00 0.00 73 1015.1
20260509153140 87 138 6.0 13.0 0.00 0.00 0.00 74 1015.1
20260509152637 87 121 6.0 11.0 0.00 0.00 0.00 73 1015.0
20260509152133 87 148 4.0 11.0 0.00 0.00 0.00 73 1015.1
20260509151650 87 133 7.0 11.0 0.00 0.00 0.00 73 1015.0
20260509151248 87 119 5.0 10.0 0.00 0.00 0.00 73 1015.0
20260509151144 87 119 5.0 10.0 0.00 0.00 0.00 73 1015.0